Tracking 29969 objects as of 6-Dec-2024
HD Live streaming from Space Station
objects crossing your sky now

IRIDIUM 33 DEB

Track IRIDIUM 33 DEB now!
10-day predictions


NORAD ID: 35628
Int'l Code: 1997-051RA
Perigee: 691.2 km
Apogee: 710.6 km
Inclination: 86.4 °
Period: 98.6 minutes
Semi major axis: 7071 km
RCS: 0.0194 m2 (small)
Launch date: September 14, 1997
Source: United States (US)
Launch site: TYURATAM MISSILE AND SPACE COMPLEX (TTMTR)

Note: This is SATELLITE DEBRIS
Your satellite tracking list
Your tracking list is empty




NASA's NSSDC Master Catalog

Two Line Element Set (TLE):
1 35628U 97051RA  24340.27576881  .00014019  00000-0  29226-2 0  9991
2 35628  86.3614 174.1602 0013761 155.8600 204.3258 14.59816607809972
Source of the keplerian elements: AFSPC